View from above orbital plane
|
View from above satellite
|
Ground track
|
The orbit data is extracted from the following two-line orbital elements,
1 14453U 83109B 21102.49194842 .00000037 00000-0 10078-4 0 9995
2 14453 81.1651 142.5557 0104517 347.4338 12.4236 14.24747007946137
Epoch (UTC): | 12 April 2021 11:48:24 |
Eccentricity: | 0.0104517 |
inclination: | 81.1651° |
perigee height: | 734 km |
apogee height: | 884 km |
right ascension of ascending node: | 142.5557° |
argument of perigee: | 347.4338° |
revolutions per day: | 14.24747007 |
mean anomaly at epoch: | 12.4236° |
orbit number at epoch: | 94613 |
The dashed part of the orbit path shows where the satellite is in the earth's shadow,
|
|